Location: *
(51.0333°S, 178.4667°E)
Time: 12:03:15
(UTC+00:00)

Cosmos 1975 - Pass Details

Date: 15 November 2019
Orbit: 541 x 563 km, 82.5° (Epoch: 06 December)

Event Time Altitude Azimuth Distance (km) Brightness Sun altitude
Exits shadow 11:41:14 38° 299° (WNW) 859 3.5 -20.5°
Maximum altitude 11:42:16 48° 255° (WSW) 737 3.5 -20.5°
Drops below altitude 10° 11:46:16 10° 179° (S) 1,869 6.7 -20.5°
Sets 11:48:32 0° 173° (S) 2,777 8.0 -20.5°
